Wind_Speed
8 6 3 2 4 5 5 2 1 2 2 4 5 3 7 8 8 6 4 4 5 3 4 5 5 5 5 8 10 10 7 2 1 3 2 5 20 27 28 29 31 31 29 25 25 24 24 23 22 22 22 22 22 22 21 19 19 19 20 22 22 22 22 21 19 19 18 18 18 18 18 17 17 17 17 15 14 15 17 16 16 16 16 16 16 16 16 17 17 16 16 15 14 13 15 19 18
7 5 5 6 7 3 3 2 1 3 2 5 5 4 9 5 2 1 6 7 4 0 3 5 5 4 7 13 11 10 8 4 4 3 3 18 27 24 28 30 32 32 28 26 26 25 24 23 23 22 22 22 22 22 21 19 19 19 20 22 22 22 22 21 19 18 18 18 18 18 18 18 18 17 16 14 13 15 17 16 15 15 15 16 15 15 15 16 16 15 15 15 14 12 15 18 18
7 5 7 8 7 4 2 0 2 2 3 5 4 5 8 2 1 6 7 7 4 3 5 4 5 4 6 11 8 7 4 4 8 5 6 19 19 17 27 28 30 31 28 26 25 25 24 23 23 22 22 22 22 22 21 20 20 19 20 22 22 21 22 21 19 18 18 18 18 18 19 18 17 17 15 14 14 15 17 16 15 15 15 15 14 14 14 15 15 14 14 13 12 11 14 17 18
8 6 7 6 2 2 1 1 3 2 3 5 4 6 1 3 2 7 6 6 4 2 2 3 5 4 8 12 7 7 4 3 9 7 4 13 18 23 27 26 29 28 26 24 23 25 24 23 22 22 22 21 22 22 22 21 20 19 20 22 22 21 22 20 18 18 18 19 19 18 18 18 17 16 15 14 14 15 17 15 14 15 15 13 12 13 13 13 13 12 11 10 10 10 14 17 18
8 7 9 5 1 1 1 2 3 4 5 4 3 5 4 5 3 4 2 5 6 3 2 2 3 4 8 8 4 4 3 4 8 10 8 16 27 30 27 27 28 26 25 22 21 24 23 22 22 22 22 21 21 22 22 21 20 20 20 21 21 21 21 19 18 19 19 18 18 19 19 18 18 16 14 14 14 16 16 14 12 14 14 12 12 12 11 12 12 11 10 9 10 10 13 17 18
6 7 8 6 3 2 0 3 3 5 7 6 4 5 2 5 4 4 2 4 5 3 3 2 5 5 5 5 4 4 2 5 7 10 14 22 30 30 29 29 28 26 24 20 20 23 23 22 22 21 21 21 21 22 23 21 20 20 19 20 21 21 20 18 18 18 19 18 18 19 18 18 17 15 14 14 15 15 14 12 12 13 13 12 11 11 11 11 10 9 8 8 9 11 14 17 17
4 4 4 3 3 3 1 4 5 6 8 7 5 4 2 4 1 3 6 4 4 2 3 2 8 9 4 3 3 8 10 9 9 15 22 26 29 29 30 30 29 24 20 18 19 23 23 22 22 22 21 21 22 23 23 21 20 19 19 20 21 21 18 17 17 18 19 18 17 17 17 16 16 15 14 14 15 15 13 12 13 13 13 12 11 10 10 9 8 7 7 8 10 11 14 16 16
5 3 1 1 1 2 2 5 6 6 8 8 4 4 2 2 2 2 5 2 1 2 4 3 10 11 3 4 3 7 15 20 23 26 28 24 21 23 27 29 27 22 18 18 21 23 23 22 22 22 22 22 22 23 22 21 20 19 19 19 20 19 16 16 16 18 18 17 16 16 16 15 15 15 15 15 15 14 13 13 13 13 12 11 11 10 8 7 6 6 7 8 10 11 14 15 15
6 4 1 1 2 3 4 5 6 8 10 8 4 4 4 2 2 3 3 4 2 3 5 5 10 11 4 9 6 5 14 28 33 30 27 22 18 19 24 28 27 25 21 21 23 24 22 22 22 21 22 21 22 23 21 20 20 19 19 20 19 18 16 16 17 17 17 17 16 16 15 15 15 16 16 15 15 14 14 14 14 12 11 10 10 9 7 6 5 6 7 8 11 13 14 15 15
3 4 1 2 2 4 5 6 6 8 10 5 5 5 5 3 2 3 1 4 5 2 2 7 12 12 9 9 5 3 14 27 31 27 25 23 21 22 28 31 29 27 24 24 25 24 22 21 22 21 22 22 22 22 21 20 20 20 20 20 19 18 17 16 16 17 17 18 17 16 16 15 15 16 16 15 15 14 14 14 13 11 10 10 9 8 6 6 6 6 8 9 12 14 15 15 15
1 3 2 2 3 5 5 6 7 8 8 4 4 4 4 4 3 1 1 3 4 4 1 9 12 11 10 6 2 9 20 26 28 25 24 23 23 26 29 30 28 25 25 25 26 24 22 21 21 22 22 22 22 22 21 21 21 21 22 21 20 18 17 16 16 17 18 19 18 16 15 15 16 16 16 14 14 14 14 14 13 11 10 9 8 7 7 6 6 6 8 10 12 14 15 15 14
2 3 2 3 4 5 5 6 7 8 5 2 2 0 2 5 5 2 4 4 5 4 2 7 8 8 8 4 2 12 22 23 25 25 24 21 24 28 28 28 27 24 24 26 27 25 23 22 21 22 22 22 23 22 21 22 22 22 22 21 20 19 17 17 17 18 19 19 17 15 14 14 16 16 15 13 13 13 14 13 12 11 10 9 7 7 7 6 6 7 8 10 12 14 16 15 14
3 4 1 4 4 4 6 7 7 6 3 1 1 2 1 4 5 5 6 4 6 4 6 11 10 7 6 3 3 9 15 17 23 25 24 23 27 31 28 27 26 24 25 27 28 26 25 24 23 23 23 23 22 22 22 23 22 22 22 21 21 19 19 18 18 19 19 18 16 14 14 14 15 15 14 13 12 12 13 13 11 10 10 8 7 7 7 6 6 7 8 10 12 14 16 15 13
4 3 3 4 4 5 5 6 6 3 1 3 3 1 1 4 5 6 3 3 6 4 8 12 10 9 5 3 3 4 8 16 23 23 22 26 31 32 28 27 25 25 26 28 29 28 27 26 26 25 25 25 24 24 24 24 22 23 23 22 21 20 20 20 19 19 19 17 16 15 14 13 14 13 13 12 12 12 13 12 11 10 9 8 7 7 7 6 6 7 8 10 12 13 16 15 13
5 2 3 3 4 5 5 6 7 1 2 4 2 1 3 4 4 4 2 2 3 3 6 7 6 6 5 6 4 5 13 21 24 22 24 29 31 29 28 27 24 26 27 28 29 29 29 28 28 27 27 27 27 27 26 25 24 24 25 23 22 21 21 21 20 20 19 17 16 15 14 13 13 12 12 12 12 12 13 12 11 10 9 7 6 6 7 6 6 8 8 10 11 12 14 15 14
5 3 2 3 4 6 4 5 6 0 2 2 3 4 4 4 4 4 2 2 1 3 6 6 4 5 6 7 9 17 22 24 24 24 27 29 27 25 26 26 24 25 26 27 28 28 29 29 28 27 27 28 28 28 26 25 25 26 25 23 22 22 22 21 21 20 19 18 16 15 14 13 13 12 12 12 13 13 13 12 10 10 8 6 6 6 7 7 7 8 8 9 11 12 14 15 13
4 3 2 4 5 5 5 4 2 1 1 5 7 7 4 3 1 1 1 1 1 5 10 7 7 6 7 11 22 32 29 27 26 26 27 25 22 22 22 23 24 25 25 26 26 26 27 28 28 27 27 28 27 26 24 24 24 25 25 24 23 23 22 21 21 21 20 18 16 16 15 14 14 13 12 12 13 13 12 11 9 9 8 6 6 6 7 7 8 9 9 10 11 13 14 14 12
4 3 4 5 5 5 5 4 1 2 1 3 4 6 5 4 4 2 3 3 1 8 10 9 11 10 14 23 33 36 30 29 27 25 23 19 18 18 18 21 24 25 25 25 24 26 27 28 28 28 27 27 26 24 24 24 25 25 25 25 23 22 22 22 23 22 20 18 17 17 16 15 15 14 13 13 13 13 12 11 10 9 8 7 7 7 7 8 8 9 10 10 11 12 12 11 10
4 3 4 6 6 6 8 5 1 4 3 3 4 3 4 2 3 2 3 5 1 10 8 8 12 12 17 24 29 30 29 28 25 23 20 18 17 16 17 19 22 24 26 26 26 27 27 27 28 28 28 27 26 25 24 25 26 26 25 25 24 24 24 24 24 22 21 20 19 17 16 15 14 13 13 13 12 13 13 11 10 10 9 7 7 8 8 8 8 9 9 9 10 11 10 8 7
5 4 4 6 6 7 10 6 3 6 6 6 5 4 4 4 5 2 3 8 5 9 7 7 10 10 13 17 20 23 25 23 22 22 18 18 18 18 19 20 22 24 26 27 28 29 28 28 27 27 28 29 27 26 26 27 27 27 26 25 25 26 26 25 24 23 22 20 19 18 17 14 13 13 13 13 12 13 12 11 10 10 9 8 8 8 8 7 8 8 8 9 10 10 9 7 5
4 5 6 6 6 7 11 5 5 6 7 6 5 6 7 5 3 3 5 6 6 7 7 9 11 10 11 13 15 17 18 18 19 19 17 18 18 19 20 22 24 24 25 27 28 29 28 28 27 27 29 29 28 28 28 29 29 27 26 26 26 27 27 26 24 23 22 20 19 19 17 16 14 13 14 13 13 13 12 11 10 9 8 8 9 9 8 8 8 8 7 9 9 9 7 5 3
3 7 9 8 7 8 10 4 5 5 6 3 2 4 6 5 3 3 6 2 2 6 9 13 14 12 12 12 12 13 13 13 14 15 16 17 18 19 20 22 23 22 22 24 26 28 27 27 27 27 29 29 29 29 29 29 29 28 26 26 26 27 26 25 24 22 21 20 20 19 18 18 16 15 15 14 13 13 12 11 9 8 6 7 9 10 9 9 10 9 8 7 8 7 4 3 2
3 6 6 8 9 8 10 4 4 6 5 2 1 3 5 4 3 3 6 3 5 8 10 12 12 13 14 13 11 11 12 11 12 14 16 18 21 21 20 22 22 22 21 20 24 26 25 26 27 28 30 30 30 28 28 29 28 27 26 25 25 25 24 23 22 21 20 20 20 19 19 19 17 16 16 14 13 12 12 10 8 7 6 7 9 10 10 9 9 9 8 6 7 6 4 5 4
6 7 6 8 8 8 9 4 2 5 4 1 1 4 5 3 3 3 7 2 10 10 9 11 10 11 12 11 10 9 10 11 11 16 20 19 15 11 11 14 14 17 18 18 21 24 25 28 29 30 31 31 30 28 27 28 27 25 24 23 22 22 22 22 21 21 21 21 20 19 19 20 18 17 16 14 12 11 11 9 8 7 6 7 8 9 10 9 8 8 6 5 6 6 6 6 4
7 7 7 7 7 8 8 5 3 3 5 2 1 4 5 4 2 3 8 1 12 12 10 12 11 11 10 9 9 8 8 9 10 13 13 11 8 8 9 9 12 14 16 19 21 24 27 31 33 33 33 33 30 27 26 27 25 23 22 20 20 20 20 21 21 21 22 21 20 19 19 20 20 18 16 13 12 11 11 9 8 7 5 6 8 9 9 8 8 8 6 7 7 6 5 5 5
8 8 8 7 8 8 7 7 5 2 3 3 3 5 6 6 4 4 9 5 9 14 12 12 13 12 9 8 8 7 6 6 7 8 8 15 12 13 13 14 17 15 16 20 21 24 29 32 34 34 32 32 30 28 28 28 25 23 21 19 19 20 21 22 21 22 22 20 20 19 19 20 19 19 16 14 13 12 11 10 10 8 5 4 6 8 8 9 8 7 8 9 7 6 4 5 7
7 7 7 9 9 7 5 6 5 2 3 5 4 5 6 6 4 4 9 8 7 14 13 12 13 12 10 8 7 7 6 6 8 8 9 17 18 17 16 16 16 15 18 21 21 25 29 30 31 29 29 31 31 30 31 29 26 24 23 20 20 21 22 22 21 21 21 19 19 18 19 20 19 18 17 14 15 13 12 12 13 12 10 7 6 7 9 10 7 5 7 7 7 7 5 5 7
5 4 4 8 8 6 5 6 6 4 2 4 2 4 7 5 3 5 8 9 7 11 14 13 12 11 11 9 7 6 5 6 9 8 8 13 17 19 17 14 16 18 21 22 23 27 28 28 27 26 27 30 30 29 27 26 26 27 26 23 22 22 23 22 21 20 19 18 18 18 18 19 19 18 16 16 17 15 13 14 15 13 13 10 6 7 9 10 8 8 8 7 8 7 5 5 7
6 5 4 6 6 5 6 7 6 5 2 5 3 4 7 5 7 9 8 9 5 11 14 11 10 10 10 9 7 5 5 6 6 6 8 11 17 20 17 15 19 21 21 20 24 27 27 27 27 25 25 28 29 26 24 23 24 26 27 26 23 23 24 23 21 19 18 18 19 19 18 18 19 17 16 16 15 14 14 14 14 13 13 11 8 9 10 10 9 9 8 7 8 8 7 6 6
5 5 3 4 5 5 8 7 8 7 5 6 5 2 6 7 10 10 10 10 5 14 13 11 9 9 9 8 7 5 5 6 5 6 7 7 14 23 24 23 24 24 23 24 25 25 26 26 25 23 23 26 26 23 23 23 23 25 25 25 23 22 22 21 19 17 17 18 18 18 18 18 18 17 16 15 13 13 14 13 12 13 13 11 11 12 11 12 9 8 8 7 5 13 12 6 5
4 3 3 3 2 7 8 7 9 9 7 7 6 4 7 6 9 10 10 11 8 13 12 11 9 7 7 7 7 6 5 6 8 8 7 4 7 24 31 29 28 28 28 28 25 24 24 24 23 22 23 27 24 22 25 26 24 25 25 24 21 21 21 20 18 17 17 18 18 17 17 18 18 16 15 14 13 12 11 11 12 12 11 12 14 12 10 11 8 6 6 6 4 17 13 7 7
2 1 4 3 4 8 8 7 11 11 7 9 9 4 7 6 10 9 9 11 8 13 11 10 9 8 8 7 7 7 5 6 8 7 9 7 4 19 29 27 28 29 29 27 24 24 24 23 22 24 26 26 22 23 27 26 24 25 26 24 22 20 21 19 18 17 18 18 18 18 17 17 17 14 12 13 12 11 10 11 13 11 12 14 14 12 9 8 7 6 6 5 8 21 16 12 11
2 4 4 4 5 7 7 8 13 13 7 9 9 3 6 5 8 9 11 14 10 13 12 10 10 9 8 7 6 7 5 6 6 7 11 9 7 18 24 24 25 26 25 24 23 23 25 23 22 26 26 23 23 25 26 22 22 23 22 23 21 19 19 18 19 19 18 18 18 18 16 15 16 13 11 12 11 11 12 13 13 12 13 14 14 14 10 7 7 7 6 6 9 20 14 10 11
3 4 4 5 7 6 6 6 11 14 7 7 8 4 8 8 8 10 7 11 9 12 13 12 10 7 7 6 6 6 6 6 5 9 13 11 11 21 23 22 22 22 21 20 19 21 24 24 23 24 23 24 25 24 24 18 17 20 18 18 17 14 15 15 18 19 17 17 17 17 15 13 15 14 12 11 11 11 13 13 13 13 14 13 13 13 9 8 8 7 6 5 8 15 11 9 14
5 4 4 5 8 7 7 4 7 11 8 8 8 6 11 10 9 9 2 10 9 9 12 11 10 9 7 7 7 6 6 6 6 11 15 12 14 22 22 21 20 19 18 16 17 20 23 22 23 22 20 24 22 20 23 15 13 18 15 13 14 12 13 14 17 18 16 16 16 15 14 14 15 15 14 13 12 12 13 12 12 13 13 13 13 12 9 7 8 8 8 6 8 12 12 11 14
8 6 4 5 6 7 8 6 9 10 8 7 9 8 10 8 7 7 2 7 7 9 12 11 10 10 8 8 7 7 6 6 6 11 14 11 14 22 22 21 20 18 18 17 19 22 21 20 20 17 14 20 20 19 19 12 15 18 16 14 14 14 15 16 17 16 15 16 16 15 15 15 16 16 16 16 14 12 12 11 11 12 13 13 12 12 10 7 8 11 10 9 12 13 13 12 14
10 8 5 6 5 7 7 6 12 9 6 4 7 7 8 7 6 6 1 3 4 7 11 11 10 10 9 9 8 8 8 6 7 13 15 11 16 23 23 22 22 21 20 20 21 21 19 16 14 10 10 17 18 16 15 14 16 17 17 17 17 17 18 17 17 15 14 14 15 16 17 17 17 17 17 17 15 14 12 11 11 12 13 12 11 11 10 8 10 10 10 10 15 18 17 16 19
9 7 5 6 4 7 10 3 8 6 6 3 3 2 6 7 7 8 3 1 4 6 9 11 11 10 9 10 10 9 7 6 8 10 13 14 18 25 25 23 25 25 24 23 21 18 16 16 14 14 16 19 20 19 20 22 20 18 18 20 20 21 21 20 19 17 15 15 16 18 18 18 18 18 17 16 15 15 13 12 12 12 12 11 11 11 10 9 10 10 10 10 13 16 16 18 22
8 5 4 6 4 6 9 3 6 6 4 2 4 4 5 7 7 8 7 5 6 7 9 12 12 11 10 10 11 10 8 8 8 8 12 15 21 26 25 25 26 26 26 24 21 18 18 19 19 19 19 21 24 24 27 29 26 23 21 22 24 23 23 23 21 20 18 17 18 19 18 18 18 18 16 15 15 15 14 13 13 14 12 11 11 11 11 11 11 10 11 11 12 15 14 16 17
6 5 3 5 5 4 5 2 4 4 4 4 6 2 4 5 6 7 8 8 6 6 7 12 14 14 14 15 13 12 11 11 9 9 10 13 20 25 25 26 25 24 26 25 22 21 21 23 22 20 17 20 24 23 27 29 26 24 22 23 25 24 23 23 21 20 19 19 20 20 18 17 17 16 15 14 16 16 15 14 14 15 13 12 11 12 13 14 13 12 12 12 14 18 16 14 12
4 5 3 3 6 5 5 4 1 2 1 4 8 2 4 4 6 6 7 7 5 5 3 5 11 14 14 15 14 13 14 13 11 10 9 9 15 22 26 27 25 24 25 26 25 23 25 26 23 21 18 20 23 22 24 26 26 25 23 22 22 21 22 23 22 21 20 21 22 20 19 17 16 16 15 16 16 17 16 14 14 15 14 14 13 13 15 16 15 15 14 13 14 17 17 14 12
1 2 3 4 8 9 9 8 5 3 4 2 5 4 5 5 5 7 7 7 7 5 5 6 7 11 12 12 12 12 12 12 11 12 11 11 14 19 23 23 22 21 21 25 25 24 26 26 24 24 22 22 24 24 24 26 28 28 27 26 24 22 23 25 27 26 25 24 22 20 19 17 17 16 15 15 16 16 16 16 16 16 15 15 14 14 16 16 16 15 15 13 13 14 16 16 15
1 2 4 6 8 10 10 9 5 2 2 4 3 4 3 5 5 8 7 6 9 8 8 9 7 6 8 10 12 12 11 9 7 8 11 11 11 12 12 16 23 23 22 26 25 24 25 24 24 26 26 27 27 27 26 27 29 31 31 31 29 27 26 26 29 29 28 25 21 20 19 18 18 16 15 15 15 15 16 17 18 17 17 16 15 15 14 15 15 14 14 13 13 14 15 17 17
2 4 5 7 9 9 9 8 5 3 4 4 1 3 1 4 5 7 7 6 7 8 7 4 3 5 3 5 8 9 8 6 5 6 6 5 8 13 16 19 25 26 27 28 25 26 26 24 25 28 29 29 29 29 29 29 31 33 33 31 29 29 27 25 26 27 26 24 22 21 19 19 18 17 16 15 15 15 16 17 17 16 17 16 15 15 14 14 14 14 14 13 13 13 14 16 18
3 5 8 9 9 9 7 6 5 3 4 5 4 2 1 4 5 7 7 3 3 4 5 6 8 10 9 7 8 8 8 6 5 5 7 11 15 20 21 22 26 26 25 25 27 29 28 26 27 29 30 30 31 31 32 32 33 33 32 30 28 28 25 22 23 24 24 23 22 22 20 18 18 17 16 15 16 17 16 17 17 17 17 16 14 13 13 13 14 14 14 13 13 14 14 15 17
5 7 9 8 6 5 2 1 2 2 1 3 3 1 1 4 5 5 3 2 3 3 6 7 8 10 9 6 7 7 7 5 7 10 12 14 17 20 22 26 27 24 21 25 29 29 28 27 28 29 30 31 32 33 35 35 34 32 31 30 29 27 23 19 19 21 23 22 21 21 20 19 19 18 15 16 17 15 15 17 18 18 17 15 14 13 13 14 14 14 14 14 15 15 15 14 16
6 7 7 6 6 2 3 3 3 4 2 4 5 4 3 4 5 4 3 3 2 2 5 6 8 12 11 9 8 8 8 8 10 13 14 17 19 18 20 24 24 24 28 32 32 30 28 27 27 28 29 30 30 32 35 35 33 32 31 30 29 26 23 20 19 19 21 21 21 21 20 20 21 19 17 18 17 15 14 15 16 17 16 15 14 13 14 15 15 15 15 15 15 15 15 15 15
6 5 4 2 4 2 2 4 4 1 4 5 5 5 4 3 3 4 4 5 5 5 6 7 9 11 11 9 9 8 8 9 11 13 12 14 16 15 15 14 13 15 23 26 25 25 26 27 29 28 28 29 27 27 29 29 30 30 29 28 27 25 24 23 21 19 20 22 23 22 21 21 20 20 20 20 20 18 17 16 14 14 15 15 15 15 16 15 15 16 15 14 14 13 14 15 16
5 4 3 2 1 1 0 2 1 3 5 5 5 6 4 3 3 2 5 6 7 7 6 7 8 10 11 10 8 8 8 10 11 10 9 9 9 10 11 10 9 8 10 4 5 6 9 16 22 24 24 24 22 21 20 21 23 24 24 26 26 24 24 24 22 21 21 22 23 22 22 22 21 21 21 21 22 20 18 18 16 15 15 14 14 16 17 15 16 16 15 14 13 13 14 15 16
4 4 3 4 2 1 2 3 2 4 5 6 6 5 3 1 1 3 6 6 6 7 7 9 11 12 12 10 10 9 10 10 9 8 8 7 7 9 12 14 15 16 13 2 12 10 5 7 10 12 14 16 15 14 14 15 18 19 19 22 25 24 24 24 22 22 22 22 22 22 23 23 23 22 21 22 23 21 19 18 17 16 16 14 13 15 16 15 16 16 15 14 13 13 14 14 15
3 4 4 5 4 3 3 3 4 4 4 3 2 2 2 3 3 4 6 6 6 8 9 12 15 14 12 12 12 12 10 9 7 7 6 5 7 11 11 12 14 17 15 7 4 4 6 9 6 1 1 5 9 10 11 14 17 17 16 19 22 23 23 23 21 21 22 21 22 23 23 23 23 22 21 21 21 20 19 18 16 16 17 15 14 14 13 14 15 15 14 13 12 12 13 14 15
2 4 5 4 5 5 3 4 4 3 1 2 0 1 0 3 2 3 6 7 8 11 13 15 14 12 11 11 11 10 9 9 8 6 6 5 5 7 8 9 10 12 10 6 3 3 10 12 8 4 2 1 4 8 12 15 17 17 16 17 19 21 22 21 20 20 21 22 21 22 23 23 23 22 20 20 20 19 19 18 17 17 17 16 14 14 12 13 15 14 14 13 12 13 13 13 14
3 3 5 6 6 5 3 4 3 3 3 2 2 3 3 1 2 6 6 7 9 13 14 14 11 11 11 9 8 8 8 7 6 5 5 6 6 5 6 8 9 9 7 3 4 6 9 10 9 12 11 8 9 13 17 18 18 18 19 18 17 19 21 21 21 20 21 23 20 19 23 23 22 22 20 20 21 19 18 18 18 16 16 15 14 14 13 13 13 12 14 14 12 12 13 12 13
4 3 5 6 4 3 2 1 2 2 2 4 3 6 1 1 1 6 5 8 10 11 13 12 11 10 11 9 7 7 6 5 5 4 4 5 5 4 6 7 6 7 8 7 10 10 9 8 8 12 15 18 20 22 22 20 19 20 20 19 18 18 20 21 21 21 22 22 18 19 23 23 21 22 21 20 20 19 17 18 17 14 14 15 15 14 13 12 12 12 12 12 10 11 12 11 11
6 5 5 4 4 4 3 3 2 2 2 3 2 6 2 2 1 4 6 8 8 10 11 11 10 9 8 7 6 6 6 5 4 4 4 5 6 5 2 1 1 3 8 10 12 12 10 9 9 12 15 18 20 20 18 16 17 18 18 18 18 17 18 20 21 22 22 20 17 20 23 22 22 22 21 20 18 18 18 17 16 14 13 14 14 13 12 12 12 12 12 12 10 10 11 10 10
6 5 4 1 3 4 3 3 4 4 3 3 1 4 1 1 2 2 4 5 7 8 9 8 9 9 8 6 6 7 7 7 6 6 5 6 7 8 7 6 5 3 2 5 8 9 6 6 9 12 13 14 15 16 17 16 16 18 18 19 18 17 17 18 21 23 22 17 17 22 24 23 23 22 21 20 18 17 17 15 15 14 13 13 13 13 12 12 12 12 12 12 11 10 10 11 11
5 4 3 2 1 2 2 2 2 4 3 3 2 1 3 2 2 2 2 4 6 7 7 7 9 10 9 8 7 6 7 8 9 9 8 8 9 10 10 9 9 8 7 5 6 7 6 6 7 8 9 11 11 14 17 19 19 20 22 22 18 18 19 19 21 23 19 17 20 24 24 24 24 22 21 20 17 16 14 13 14 14 13 13 13 13 13 11 12 13 12 11 12 11 10 11 12
5 5 5 4 2 2 2 3 3 2 3 3 5 2 3 1 2 2 3 5 7 9 8 8 8 8 9 8 7 7 8 10 11 11 10 10 12 14 14 14 14 12 12 9 4 3 3 4 6 5 4 6 9 12 14 17 19 21 24 24 19 19 21 20 21 21 18 20 23 25 25 24 24 22 20 18 17 15 13 12 14 14 13 13 13 14 13 12 12 13 11 10 11 12 12 12 13
Wind_Direction
270 280 277 283 290 305 294 229 113 268 181 262 252 237 256 230 237 276 342 29 60 26 16 54 59 62 89 99 104 78 44 15 130 129 194 137 121 132 141 142 146 148 148 146 145 145 148 150 150 148 148 150 152 153 149 148 146 144 142 144 143 139 136 132 131 129 129 128 127 126 123 118 114 112 109 108 107 107 107 104 103 102 100 96 91 87 83 80 76 78 88 94 89 86 100 105 106
262 271 288 291 277 283 274 185 150 257 171 263 253 206 251 271 278 65 59 54 61 35 26 52 57 42 92 106 109 81 50 36 76 100 104 111 113 123 132 138 144 146 145 143 142 142 145 147 148 147 148 151 153 154 151 150 149 146 146 147 145 141 137 134 133 132 132 131 128 127 124 121 117 116 114 114 112 111 111 107 106 105 102 98 93 89 85 82 77 74 79 89 90 88 104 111 111
252 261 288 288 266 239 282 285 210 242 193 248 262 237 242 264 91 99 81 76 71 42 28 35 59 17 76 90 82 82 102 98 93 89 105 111 109 119 127 134 138 139 139 137 139 141 143 146 148 147 148 152 154 155 153 153 151 149 149 149 147 141 139 136 135 136 137 134 129 127 126 124 122 122 121 119 115 114 113 111 111 108 103 100 96 92 87 84 79 75 75 83 89 92 107 115 115
254 252 270 283 271 224 283 238 199 217 227 243 266 284 269 126 118 99 105 110 99 53 44 45 57 19 76 92 84 90 108 116 112 107 105 114 119 127 127 129 129 127 127 128 136 140 142 146 148 147 149 152 155 156 155 154 152 151 151 151 147 141 140 138 137 140 140 136 131 130 129 129 129 128 126 124 119 115 116 120 118 111 106 104 100 95 91 87 82 79 78 78 84 98 113 120 120
261 252 256 257 267 231 203 245 210 204 228 232 246 301 36 78 25 71 130 126 123 145 124 90 87 45 69 83 89 105 95 95 107 104 102 114 123 127 123 123 119 114 116 121 134 139 142 146 149 149 151 153 155 156 156 156 153 153 152 152 149 143 142 140 141 144 142 138 134 135 135 135 135 134 132 129 123 120 124 128 119 112 111 108 102 98 93 86 83 81 81 80 84 99 115 125 124
269 274 260 236 256 300 301 259 252 244 239 226 235 285 57 74 3 344 351 80 79 98 115 92 110 93 72 58 49 62 84 125 103 97 109 117 122 119 116 115 111 109 117 124 132 139 144 148 151 151 153 154 155 156 156 157 155 154 153 154 153 148 145 143 145 148 146 142 138 138 140 141 141 140 139 134 130 131 132 126 115 113 113 108 101 96 92 89 90 90 88 87 89 99 114 128 131
259 296 270 209 260 281 249 255 251 263 256 241 231 232 148 96 187 333 14 58 22 35 112 87 101 95 81 78 58 40 61 107 108 107 113 115 118 115 113 112 111 113 122 133 136 141 147 152 153 153 153 153 154 156 157 158 156 154 153 155 154 150 147 147 149 151 150 148 145 142 143 146 147 144 142 140 137 139 135 124 116 115 114 110 104 99 98 102 104 95 85 86 89 99 114 129 137
235 264 284 165 261 249 218 254 250 256 264 263 227 172 136 81 137 32 17 36 358 118 138 145 109 95 64 85 99 33 62 95 99 99 98 94 95 100 109 114 118 124 133 143 141 143 149 153 152 152 152 152 155 157 158 158 157 154 154 156 153 150 149 148 148 149 152 153 150 145 146 147 148 145 142 143 141 142 136 126 124 121 119 116 112 109 108 108 100 83 74 82 91 104 118 129 138
226 221 282 230 223 260 245 252 251 245 254 258 214 151 122 85 76 72 9 323 286 169 174 182 115 103 98 81 85 23 64 92 95 93 92 92 90 101 119 125 131 134 136 141 140 143 147 151 150 151 152 154 156 158 159 159 158 156 156 157 154 152 150 148 145 146 151 154 152 148 148 146 147 146 142 142 144 145 139 132 130 129 126 122 119 117 111 103 91 77 74 81 97 113 123 130 135
208 196 243 265 229 264 258 258 255 250 253 227 175 154 144 145 101 122 106 288 288 314 117 103 96 108 114 85 76 61 81 96 100 101 107 118 126 133 135 131 135 135 132 137 140 142 144 150 152 154 155 155 159 159 160 161 161 160 159 158 155 154 150 149 145 145 149 152 152 151 150 148 149 149 143 143 146 147 143 138 136 137 134 128 127 120 109 102 93 81 81 86 104 121 129 131 131
224 213 191 264 264 257 249 259 262 265 256 179 139 141 150 129 98 108 24 277 296 323 80 87 96 110 103 88 82 90 93 103 109 115 127 132 133 133 129 128 135 136 134 138 140 141 145 151 153 156 156 156 160 160 163 165 165 163 160 157 154 153 152 152 148 146 149 151 152 153 154 154 155 153 147 146 150 151 148 143 140 143 141 136 132 119 108 105 98 87 87 93 109 126 132 131 127
243 250 172 225 238 238 246 259 262 277 276 119 95 187 173 122 104 67 33 344 319 321 17 89 120 114 91 95 120 91 90 105 118 130 136 126 123 122 122 131 137 137 138 142 144 144 148 152 153 157 157 158 162 164 166 166 165 162 158 157 155 155 156 155 150 149 151 152 154 154 155 157 160 159 152 149 152 157 154 149 146 147 145 143 135 119 112 109 100 91 94 98 109 127 135 132 122
216 249 213 235 238 241 257 267 267 294 343 80 179 233 199 91 72 50 41 341 321 339 86 112 132 107 84 93 110 92 89 117 131 137 131 117 123 121 123 135 137 140 142 147 149 148 150 153 155 160 160 162 165 166 166 165 164 161 159 160 160 161 161 158 154 154 154 156 156 154 151 152 161 163 158 155 156 163 160 154 153 149 147 150 139 122 116 115 105 94 99 100 105 125 136 131 118
209 238 214 250 270 268 271 274 279 306 310 253 228 232 46 66 64 55 19 309 335 355 105 115 121 98 96 122 107 96 120 142 135 132 127 121 127 124 125 133 135 139 144 150 151 150 153 156 159 164 165 165 167 165 165 166 166 164 164 165 167 168 164 160 158 158 161 161 157 155 153 152 161 165 163 163 164 169 168 161 157 152 152 156 145 126 123 122 108 98 105 106 104 122 137 133 119
210 242 228 264 281 279 275 267 276 254 210 261 277 341 67 77 108 103 266 233 339 317 103 94 106 109 139 157 152 148 152 147 132 128 126 125 128 127 129 131 134 140 146 151 152 155 158 161 165 168 168 167 167 166 168 170 170 169 170 171 171 169 166 162 161 163 165 165 161 157 156 156 164 168 169 171 173 177 175 171 163 155 158 160 150 132 130 131 115 103 110 113 106 115 134 134 122
208 233 252 275 271 276 269 271 298 350 222 304 4 352 62 82 114 132 232 162 305 332 73 71 86 121 152 152 140 139 145 141 130 127 126 127 128 127 130 132 136 142 147 151 154 159 162 164 167 167 167 166 168 169 170 172 172 172 173 173 171 167 166 165 163 165 166 166 165 160 157 160 168 172 174 177 181 185 179 176 171 160 162 162 155 143 138 141 123 109 112 119 113 113 126 130 122
213 213 246 271 259 261 258 271 337 85 312 37 27 347 45 68 14 110 280 253 245 57 74 75 73 97 119 117 130 136 139 133 127 126 125 128 128 127 132 137 139 143 149 155 158 160 165 167 165 165 166 168 170 171 172 173 173 172 173 172 169 167 166 166 164 165 166 167 166 163 161 164 171 174 176 180 185 190 183 178 174 167 169 162 156 150 146 149 131 115 114 119 121 119 121 122 117
221 183 215 248 244 248 262 265 191 134 20 55 51 343 31 51 335 354 6 305 213 80 73 77 75 84 98 108 126 135 136 130 129 129 129 132 134 136 139 143 146 149 156 161 163 164 169 168 165 167 168 171 171 172 174 174 174 173 172 169 168 167 166 165 165 166 167 168 167 166 165 168 172 173 175 179 183 189 187 182 177 175 178 164 155 154 150 153 138 123 119 119 127 130 127 125 115
213 186 209 234 238 251 271 283 63 95 33 19 77 26 21 36 324 340 9 320 59 93 82 85 86 92 101 111 123 130 132 131 133 135 136 142 146 149 149 151 153 155 162 168 169 168 171 169 168 171 170 171 171 171 175 174 174 173 171 169 168 167 165 164 164 166 167 168 170 168 166 169 172 173 174 173 177 184 185 187 187 189 191 175 164 157 154 157 146 135 130 123 124 129 128 127 116
206 199 228 242 243 261 277 295 41 72 45 18 33 24 340 336 340 344 350 347 44 109 119 101 96 106 113 118 124 128 130 132 137 139 143 149 154 159 157 159 160 162 168 171 169 168 171 169 170 174 172 172 171 172 175 174 174 173 172 171 168 166 165 165 165 165 167 169 170 167 167 170 172 173 172 168 173 180 182 188 192 200 203 191 179 168 164 166 157 148 143 132 121 120 113 105 102
189 200 229 253 267 282 282 302 54 67 63 39 354 344 325 324 5 349 334 2 52 106 129 128 126 131 129 125 126 131 133 135 140 143 149 155 163 168 167 167 166 166 168 169 167 166 169 170 172 176 174 173 173 175 176 175 173 172 173 173 171 169 167 166 166 166 168 171 170 168 170 172 174 173 169 168 175 180 181 185 188 198 204 194 186 181 178 176 169 161 154 145 132 125 107 95 98
192 223 231 246 264 275 280 321 65 76 75 59 316 306 306 325 21 337 317 324 139 140 140 142 142 141 135 129 131 136 139 141 145 152 156 159 169 175 171 166 166 167 166 166 165 165 168 170 176 179 176 176 177 178 178 176 174 174 176 176 174 171 169 168 166 167 168 171 172 173 175 175 174 172 170 170 175 178 182 185 184 186 193 193 191 190 191 187 179 171 165 158 150 143 112 119 165
213 250 239 239 243 253 276 316 74 88 76 44 291 281 303 349 3 301 290 278 158 151 141 139 138 136 134 133 139 142 144 151 156 162 166 168 176 181 171 162 165 168 165 165 166 167 170 173 179 182 179 178 181 181 178 176 176 176 177 178 176 173 170 169 167 168 169 172 176 179 178 175 172 171 174 174 175 179 184 185 178 173 174 182 192 196 195 191 185 180 175 170 173 168 142 148 163
217 254 253 252 252 252 267 278 122 114 115 194 290 313 322 356 8 315 297 317 130 139 130 127 126 127 128 131 143 144 146 157 162 172 176 172 172 165 145 140 152 164 164 164 167 170 176 179 182 185 182 181 182 181 178 177 176 177 178 178 177 174 173 174 171 173 175 176 180 184 179 172 168 166 171 178 181 181 183 184 177 172 172 175 182 185 185 182 178 178 174 187 194 174 156 157 159
216 246 255 259 268 265 265 271 249 152 147 183 256 284 290 278 283 280 283 279 133 144 136 132 129 124 123 126 137 140 145 157 166 178 167 131 100 95 112 134 149 163 167 166 169 174 183 187 187 188 185 182 181 178 176 176 175 176 178 179 180 178 179 180 179 180 181 181 184 184 177 170 166 162 163 176 186 183 177 180 186 178 174 180 176 175 177 173 171 176 190 210 198 169 173 187 190
207 227 248 248 259 268 270 279 277 157 148 174 216 247 251 242 242 249 258 244 147 146 142 138 132 128 131 132 138 142 148 151 162 184 135 109 120 135 148 174 173 168 163 165 173 180 188 191 190 190 185 181 179 176 177 177 174 175 177 180 183 184 187 186 185 187 186 187 186 183 177 171 169 164 160 170 179 182 175 179 195 190 190 220 213 206 198 180 171 181 196 200 190 188 213 205 197
216 221 251 255 259 267 275 284 278 264 208 182 193 249 254 237 217 229 245 243 171 141 139 140 135 132 136 138 138 142 152 153 161 183 140 127 143 153 163 178 171 157 150 160 178 185 191 193 190 188 183 179 179 178 178 176 173 175 179 182 186 189 192 191 189 188 190 192 188 183 179 174 173 167 164 167 167 175 180 186 197 195 197 212 230 221 198 186 187 206 207 200 200 196 177 169 184
271 268 267 261 268 281 291 295 287 287 224 162 175 257 267 266 230 230 232 235 204 149 143 143 139 136 138 141 137 137 146 147 161 176 161 149 151 159 177 178 157 153 152 164 184 189 191 191 189 187 185 182 180 178 177 176 176 178 181 183 186 188 192 194 191 189 193 194 188 184 182 177 176 173 172 174 171 174 180 188 193 191 187 180 190 200 186 189 201 219 212 199 199 174 144 182 199
279 287 287 275 288 284 267 268 265 274 230 167 175 251 263 250 235 240 240 246 204 139 140 139 136 138 137 138 130 129 130 126 149 165 178 181 158 161 189 188 168 166 166 178 191 192 191 189 188 187 185 182 179 178 176 175 181 183 182 184 186 186 190 194 193 193 194 193 188 186 184 179 179 181 182 182 182 185 186 188 188 183 171 158 183 202 198 198 199 215 209 201 194 129 118 182 185
250 259 265 286 312 273 243 238 235 235 220 185 161 248 261 235 231 231 235 247 165 130 143 143 140 141 135 134 126 130 136 136 170 178 183 189 158 164 183 185 178 176 177 186 193 195 196 191 187 183 180 181 179 179 178 176 183 186 181 181 183 183 188 191 192 194 193 189 188 188 186 182 182 186 188 188 186 184 186 186 175 170 163 163 194 201 201 200 198 217 212 216 179 110 114 156 151
260 270 268 243 271 264 241 223 219 216 211 171 144 238 256 245 245 234 227 232 161 137 152 146 142 140 133 137 132 142 164 170 183 183 184 225 165 159 165 168 171 174 176 182 189 193 192 187 183 179 179 181 178 175 179 181 183 183 178 177 181 186 190 190 191 194 192 187 187 189 187 184 183 182 186 190 189 185 186 181 164 161 164 180 198 194 194 198 202 215 202 226 143 105 108 131 134
249 217 288 234 212 255 252 226 209 205 195 143 134 232 261 249 250 246 230 228 174 143 153 144 144 148 143 148 142 147 175 183 175 174 186 224 200 149 152 158 162 168 172 176 185 187 183 179 178 181 185 183 174 169 178 184 182 178 176 177 181 186 189 189 190 192 190 189 189 190 185 182 182 179 183 189 196 203 195 178 165 165 176 187 192 185 186 195 206 202 191 231 125 108 114 127 128
233 187 239 236 228 254 263 241 207 197 181 138 139 215 275 255 248 253 229 217 179 143 149 147 151 152 148 154 151 149 165 177 164 170 193 214 188 150 149 154 159 166 171 175 182 184 184 179 177 186 187 180 174 170 169 173 177 175 169 173 179 183 188 191 192 191 189 189 188 188 183 181 184 182 183 183 193 203 189 178 172 176 184 186 187 184 184 190 203 197 194 226 129 117 130 134 128
252 214 221 241 248 251 265 248 195 183 162 140 147 195 261 263 272 280 227 180 146 135 147 150 152 151 152 151 147 152 164 176 163 166 190 204 175 157 155 154 157 165 171 180 188 190 188 181 179 188 185 178 179 172 159 152 164 168 157 162 170 177 190 192 189 187 187 187 184 185 184 183 188 189 186 178 179 187 183 181 178 181 184 184 188 186 180 186 197 196 189 198 127 119 134 145 140
236 222 209 243 253 247 256 251 175 170 152 149 158 202 250 260 280 302 84 125 122 134 147 152 155 154 160 154 150 165 169 178 180 171 181 190 165 157 159 157 157 164 173 188 196 193 189 182 182 189 185 179 177 167 161 144 136 152 144 144 154 165 187 187 181 183 184 187 187 187 188 186 189 191 189 183 178 181 182 183 179 182 188 188 193 187 174 182 193 192 185 163 118 118 134 145 140
247 248 214 233 255 256 249 203 171 169 147 150 164 202 247 259 278 307 41 126 138 144 147 155 160 154 160 158 157 169 173 186 184 168 172 174 156 152 155 156 160 167 175 186 190 190 188 179 181 188 174 162 155 154 162 129 104 132 136 141 158 170 184 181 175 179 182 188 193 191 189 188 188 186 186 185 183 183 184 186 183 188 197 195 196 193 173 174 191 191 184 146 116 126 144 139 131
261 275 268 269 277 289 286 166 163 157 128 174 184 203 255 275 282 292 348 122 171 172 155 160 163 155 160 161 160 162 166 183 171 164 170 161 145 149 154 157 160 163 171 181 181 182 181 167 168 171 138 137 140 140 151 137 124 139 147 155 169 177 183 180 171 174 177 180 187 188 188 189 186 182 183 183 184 188 187 191 192 195 205 200 197 194 173 174 194 188 173 143 121 128 142 144 144
270 279 291 301 289 293 302 181 161 119 101 198 169 73 300 298 295 290 311 91 224 205 159 160 164 159 164 163 167 169 162 168 161 156 164 157 145 150 155 157 161 165 169 174 171 166 156 152 156 149 139 142 145 144 155 167 169 169 170 173 177 178 183 183 175 172 173 175 181 186 189 189 185 181 181 181 186 193 192 193 194 196 207 205 195 189 176 179 193 181 163 150 132 132 143 152 153
265 277 290 299 294 304 301 199 146 98 107 195 95 57 294 285 297 299 298 273 236 210 171 167 167 161 169 178 179 177 167 169 167 153 161 160 149 151 157 162 167 167 165 165 160 148 146 162 167 156 151 149 151 157 165 172 178 179 179 182 181 180 184 184 178 174 174 177 183 187 190 189 185 182 181 183 188 194 196 195 193 193 206 213 200 188 181 182 182 173 162 153 139 137 149 161 161
244 244 248 270 270 294 295 207 139 145 168 158 127 133 278 288 304 305 289 274 258 237 188 165 168 170 176 185 186 178 175 181 178 164 167 160 151 156 164 169 169 160 156 152 144 144 163 179 172 159 159 152 152 167 172 172 175 175 179 185 183 180 183 184 178 174 176 181 184 185 185 186 185 185 185 186 190 194 195 196 195 191 199 215 209 189 180 179 174 168 165 162 149 140 147 167 182
241 232 210 255 273 274 273 291 289 213 226 139 129 82 316 282 278 285 282 279 273 261 237 172 173 180 185 187 188 183 179 184 178 163 164 161 159 165 168 170 165 153 148 141 141 160 182 187 171 154 156 158 163 177 180 177 175 173 179 184 183 180 181 182 177 172 174 184 189 183 180 185 186 185 187 187 189 194 193 194 198 193 197 211 209 189 178 175 174 171 166 169 166 155 151 159 178
297 273 224 252 284 290 291 312 349 23 332 276 120 72 304 271 252 255 265 278 282 274 253 241 200 187 191 189 191 189 181 186 178 160 161 168 172 172 169 162 145 132 127 131 150 178 191 186 168 153 157 168 180 186 183 181 179 177 179 182 186 186 183 181 179 175 175 184 190 182 180 188 189 183 184 186 187 193 194 193 196 195 196 204 200 188 181 179 179 177 171 171 179 177 167 157 162
57 264 227 231 257 276 286 301 329 53 265 268 132 128 265 295 271 249 246 248 261 264 243 239 238 217 200 184 185 186 180 184 174 158 165 172 172 164 147 124 111 111 118 132 159 191 196 182 163 158 166 175 186 191 185 183 182 182 185 188 192 193 190 186 180 178 178 181 184 181 182 187 187 181 179 184 185 190 195 196 198 196 193 197 196 189 187 186 184 179 173 173 179 184 179 166 164
191 238 244 240 239 251 263 268 266 235 246 294 35 118 264 297 271 261 260 250 259 275 270 253 316 352 37 124 153 163 165 167 159 154 144 102 73 72 80 93 107 122 132 142 167 192 194 181 164 166 173 178 187 191 189 189 187 187 188 190 192 195 197 191 180 178 177 178 179 180 183 184 183 179 176 181 186 191 194 192 193 192 188 191 194 192 191 189 180 172 170 172 179 185 184 174 168
202 217 238 247 234 230 246 257 260 256 256 305 344 33 324 271 272 280 270 280 28 21 15 42 52 38 45 89 118 135 149 150 129 106 82 67 75 88 97 107 117 127 139 159 179 186 186 182 173 173 178 183 189 191 191 191 189 188 186 186 189 194 200 195 181 177 176 176 178 176 180 185 182 176 177 184 187 189 191 186 185 184 184 186 184 183 188 186 176 173 176 177 179 181 183 180 170
206 215 236 263 258 218 139 86 305 337 272 271 298 345 283 279 295 306 294 1 22 51 50 48 57 52 50 75 102 116 120 104 76 69 65 70 88 105 112 120 129 137 155 180 188 182 179 181 179 180 186 190 192 191 190 190 190 189 185 184 186 189 196 195 182 176 175 175 175 172 173 179 177 173 178 185 179 176 181 181 181 179 177 179 178 175 174 174 173 175 178 178 176 174 176 180 172
214 217 233 266 279 270 76 64 54 29 323 253 235 203 210 271 310 342 38 50 359 43 55 39 44 51 54 60 70 79 78 70 66 65 65 71 83 98 108 122 139 153 169 184 191 185 179 183 187 189 194 197 196 193 193 193 193 193 188 186 187 186 188 189 184 178 175 172 170 167 165 167 171 170 171 174 167 159 164 170 173 174 173 174 175 173 171 174 176 174 175 176 177 176 175 177 173
219 204 202 240 292 329 10 3 43 32 270 253 252 245 215 221 290 341 24 48 50 58 59 48 47 57 65 59 49 59 67 67 68 68 66 71 78 84 94 113 131 151 172 184 193 193 184 185 192 195 200 203 201 197 196 195 194 193 191 189 189 187 184 187 189 182 176 172 166 162 162 163 167 167 166 168 164 158 162 166 164 165 168 169 171 172 174 178 177 175 179 184 182 181 180 179 176
205 181 140 127 309 6 49 323 13 227 248 232 237 256 242 204 232 321 19 40 51 59 68 66 59 65 77 75 54 44 44 50 64 75 79 80 84 93 111 139 156 176 200 227 313 272 212 198 198 195 200 208 206 201 199 196 194 194 193 192 191 189 185 187 189 183 177 172 165 161 162 164 164 163 162 162 161 158 161 165 161 158 160 162 167 175 179 179 176 176 183 188 183 180 183 182 175
146 156 132 129 153 105 184 226 217 223 241 230 217 228 238 195 243 333 15 37 50 55 62 62 57 57 64 68 63 54 46 44 51 67 84 98 114 127 141 157 170 186 200 302 354 337 293 249 231 204 202 211 212 211 207 201 200 200 197 194 193 191 188 188 187 184 178 169 165 163 163 162 159 157 155 153 154 154 156 158 159 159 158 158 160 168 178 179 176 176 182 189 188 181 181 180 174
159 175 157 151 166 161 190 198 196 219 243 257 219 183 179 175 227 309 1 21 37 49 54 56 53 50 50 45 43 46 46 46 47 52 63 89 122 142 156 158 166 183 187 159 31 324 257 252 252 226 269 223 215 219 213 209 211 210 206 199 194 193 192 190 188 186 179 171 167 163 162 161 158 157 153 150 151 153 155 156 158 159 158 159 158 157 165 172 173 175 178 184 187 183 181 180 179
220 185 164 183 190 170 202 223 199 176 91 346 40 87 246 180 210 337 14 23 32 45 48 52 49 42 46 40 34 39 38 35 37 38 35 41 85 128 144 144 160 189 195 162 120 227 235 240 221 163 55 345 227 228 221 219 218 216 213 206 200 199 196 193 190 186 180 174 169 166 164 161 160 161 156 152 151 151 153 153 152 153 155 159 159 155 156 162 166 172 176 177 177 182 184 183 183
244 200 188 210 201 166 183 259 256 119 111 268 165 100 325 336 17 345 9 34 40 47 47 50 49 42 47 45 33 37 39 36 37 30 27 30 37 79 133 152 169 192 205 223 274 246 231 241 217 186 190 203 216 226 225 223 218 215 215 210 204 201 197 195 192 186 180 175 172 169 164 159 157 158 155 152 152 150 148 149 146 147 155 159 159 161 160 159 163 167 171 173 172 179 184 181 182
229 245 212 198 198 198 173 232 308 83 141 260 154 133 274 12 357 315 358 41 41 48 51 49 47 44 47 45 36 28 21 31 47 37 37 52 52 84 159 183 201 214 212 227 260 250 221 227 217 189 194 205 212 217 216 215 211 209 210 209 208 204 198 197 194 188 181 176 171 164 159 157 153 151 150 149 151 152 148 148 146 143 150 155 157 164 162 161 167 163 161 163 162 171 179 180 182
204 237 237 180 165 216 220 195 223 125 158 266 122 114 78 81 204 306 8 37 36 47 55 50 46 50 50 42 39 30 10 13 37 34 36 54 55 53 79 129 322 231 216 228 255 250 221 219 219 202 200 209 216 215 209 206 206 204 203 203 206 207 202 199 195 189 183 176 170 163 158 157 155 151 150 147 147 152 150 145 144 140 145 153 156 159 155 153 158 152 149 154 155 162 172 176 178
218 257 278 236 154 171 188 199 189 147 164 227 113 84 39 260 260 322 23 41 40 49 61 60 53 55 57 50 49 43 27 22 27 30 29 34 39 39 32 16 16 45 170 237 280 288 266 239 230 226 226 226 224 213 204 203 204 201 198 198 204 209 208 202 194 188 184 177 169 163 159 157 156 153 151 149 144 145 143 137 139 142 144 150 151 151 151 153 156 152 150 153 153 155 165 170 169
206 244 269 271 237 163 153 260 205 148 154 193 139 83 268 262 341 1 50 59 54 54 62 66 59 55 54 51 53 52 44 37 32 32 27 22 26 27 25 25 27 31 34 7 330 328 316 268 249 258 256 240 227 213 205 204 204 202 197 193 196 206 207 198 188 185 183 176 166 160 157 154 153 151 149 150 146 137 132 131 139 145 145 146 148 149 151 154 153 152 151 151 155 157 159 162 163
167 187 210 215 207 151 135 293 272 146 123 161 146 171 254 240 58 36 56 70 72 68 64 61 55 54 53 45 42 48 52 46 36 32 25 21 24 19 16 27 33 32 34 32 9 335 328 291 270 276 272 231 216 213 210 205 202 202 195 187 185 195 200 192 184 185 180 169 161 157 155 151 149 149 149 151 150 143 135 134 140 147 147 145 147 150 154 156 151 150 149 148 160 166 161 160 165
Height
777 779 779 780 780 781 782 782 796 793 793 805 793 789 773 751 751 749 750 744 742 741 732 732 731 731 737 750 759 759 760 763 767 773 778 766 755 760 759 760 763 766 771 774 777 780 782 784 786 788 790 792 794 796 797 799 800 801 802 803 804 805 806 807 808 809 811 812 814 814 816 817 819 820 821 822 823 824 824 825 826 827 827 828 829 830 830 830 830 829 830 831 831 831 831 831 832
777 779 778 781 779 783 783 779 799 799 799 809 789 781 766 748 754 755 753 747 746 739 729 730 730 731 735 744 749 755 763 759 756 758 760 756 758 763 761 762 764 767 772 775 779 781 783 785 787 789 791 793 795 797 798 799 801 802 803 804 805 806 807 808 809 810 811 813 814 815 817 818 820 821 822 823 824 824 825 826 827 828 829 829 830 831 831 831 831 831 831 832 832 832 832 832 833
777 779 778 782 780 782 782 783 800 802 804 807 787 769 756 755 758 752 748 744 740 732 730 731 732 734 737 750 752 759 767 757 752 754 755 756 760 765 765 765 766 770 773 777 781 783 785 787 788 790 792 794 796 797 799 800 802 803 804 805 806 807 808 809 810 811 812 814 815 816 817 818 820 821 823 823 824 825 826 827 828 829 830 831 831 832 832 832 833 833 833 833 833 833 833 833 834
777 779 779 781 783 784 786 790 795 799 804 799 785 763 752 757 753 747 742 737 733 730 733 733 740 738 740 758 755 758 765 757 753 754 757 758 761 766 767 768 770 773 776 780 782 785 787 788 790 791 793 794 796 798 799 801 802 804 805 805 806 807 809 810 811 812 813 814 816 817 818 819 820 822 823 824 825 826 827 828 829 830 831 832 832 833 833 833 834 834 834 834 834 834 834 835 835
777 778 779 781 787 786 786 790 787 793 796 787 780 763 752 752 746 744 737 733 731 731 734 734 747 743 742 753 753 761 764 757 755 753 758 761 763 766 768 772 774 777 781 783 785 787 789 790 791 791 793 794 796 798 800 802 803 804 805 806 807 808 810 811 812 813 814 815 816 818 818 819 821 822 823 825 826 826 828 828 830 831 832 833 833 833 834 834 835 835 836 836 835 835 835 836 836
776 778 778 780 783 779 787 794 789 788 778 770 773 762 752 747 742 741 735 733 729 729 731 734 745 747 752 753 750 758 757 756 757 755 759 764 766 768 771 774 777 781 783 785 786 788 789 790 791 792 793 795 797 799 801 803 804 805 806 807 809 810 811 812 813 814 815 816 817 818 819 820 821 823 824 825 826 827 828 829 830 831 832 833 834 834 835 835 836 836 837 836 836 836 837 837 837
777 780 778 782 782 778 793 798 792 787 767 759 764 757 750 743 739 738 738 739 735 732 731 734 739 749 762 756 755 756 750 754 755 759 762 766 770 771 773 776 780 783 785 786 786 788 789 790 790 792 793 795 797 800 802 803 805 806 807 809 810 812 813 814 814 815 816 817 818 819 820 821 822 823 825 826 827 828 829 830 831 832 833 834 834 835 835 836 837 837 838 837 837 837 838 838 838
778 782 779 786 790 785 794 794 787 781 763 753 752 748 745 741 737 739 741 742 741 737 734 734 735 753 765 755 763 761 751 756 757 763 766 770 775 777 779 780 782 782 785 785 785 788 788 790 790 792 793 796 798 800 802 803 805 806 808 810 811 813 814 815 815 816 817 818 819 820 821 822 823 824 825 827 828 828 830 831 832 833 834 835 835 836 836 837 838 839 839 838 838 838 839 839 840
777 782 780 786 793 790 791 788 781 772 759 751 747 744 741 738 737 740 742 742 740 737 735 733 733 755 766 759 767 762 757 761 760 765 767 772 777 780 782 780 781 781 784 785 786 788 789 791 791 793 794 796 798 800 802 804 805 807 809 810 811 813 814 815 816 817 817 818 819 820 822 823 824 825 826 827 828 829 830 831 832 834 834 835 836 837 837 838 839 840 840 839 839 840 840 841 841
778 780 782 787 791 795 794 786 776 765 756 749 746 742 739 737 737 739 742 743 738 737 735 731 736 754 763 766 770 764 763 763 760 766 768 769 770 774 776 775 778 780 783 785 787 789 790 791 791 793 793 795 797 799 802 803 805 806 808 810 811 813 814 816 816 817 818 819 820 821 822 823 824 825 826 827 829 830 831 832 833 834 835 836 836 837 839 839 840 840 840 840 840 841 841 842 842
782 778 779 790 795 799 795 785 774 762 752 747 745 739 735 734 735 739 740 742 737 737 734 734 748 755 760 769 770 765 764 763 763 767 767 767 767 772 775 775 778 779 782 784 787 788 789 791 791 792 793 796 797 799 801 802 804 805 808 809 811 813 814 815 816 817 818 819 820 821 822 823 825 826 827 828 829 830 832 833 834 835 836 837 837 838 839 840 841 841 841 841 841 842 843 844 843
786 781 780 793 796 793 787 780 772 760 752 750 749 738 732 731 736 741 742 743 738 739 736 737 749 751 763 773 769 765 764 766 766 766 767 768 771 775 777 777 777 778 781 783 785 787 788 789 791 793 794 796 797 799 800 802 804 805 808 809 811 812 813 815 816 818 819 820 821 822 823 824 825 826 827 828 830 831 832 833 834 835 836 837 838 839 840 841 842 842 843 842 843 843 844 845 845
783 782 784 792 786 783 779 775 767 761 759 754 749 738 731 733 739 740 741 743 739 745 742 736 741 747 766 774 766 766 768 769 767 767 768 769 772 775 778 778 777 778 780 782 783 785 787 788 790 792 794 795 797 798 800 802 804 805 807 808 810 811 812 814 815 818 819 820 821 823 824 825 826 827 828 829 830 832 833 834 835 836 837 838 839 840 841 842 843 843 844 844 844 844 845 846 846
776 776 782 788 779 777 775 772 765 764 765 753 744 736 732 736 737 736 738 745 743 744 740 732 736 749 767 773 771 771 771 769 767 769 769 771 773 774 778 778 778 778 780 781 782 784 785 787 788 790 792 794 796 798 800 802 803 805 806 807 808 809 810 812 814 816 818 820 822 823 824 826 827 828 829 830 831 832 833 834 835 837 838 839 840 841 842 843 844 844 845 845 845 846 846 847 847
771 771 776 784 780 777 771 769 764 764 764 749 741 735 735 736 733 737 739 746 745 733 732 733 734 748 762 769 773 770 769 769 767 770 771 773 774 775 778 779 779 779 781 781 782 783 784 786 787 788 790 792 794 796 797 799 801 802 804 805 806 808 809 811 813 815 817 820 821 823 825 826 827 828 830 831 832 833 834 835 836 837 838 839 841 842 843 844 845 845 846 846 846 847 847 848 848
764 768 777 784 783 781 772 764 761 765 761 747 740 734 740 739 731 739 735 736 741 730 733 739 735 743 753 757 762 762 765 768 768 771 772 774 775 777 778 779 780 780 782 782 782 783 784 786 788 791 793 794 796 796 797 798 799 800 802 805 806 808 809 811 813 815 817 819 821 823 825 826 828 829 830 831 832 833 834 836 837 838 839 840 841 842 844 845 845 846 846 847 847 848 848 849 849
761 768 781 786 783 781 771 762 761 763 757 748 743 737 745 745 734 735 729 728 739 738 739 741 735 738 744 748 753 758 764 767 769 771 772 774 776 777 778 779 780 781 783 783 783 785 786 788 790 792 794 796 798 799 800 800 801 802 803 805 806 808 809 811 812 814 816 818 821 822 824 826 827 829 830 831 832 834 835 836 837 839 840 841 842 843 844 845 846 847 847 848 848 849 849 850 851
764 773 783 784 781 775 764 758 755 753 754 749 745 741 745 748 741 734 733 735 738 744 746 743 741 740 742 747 752 758 763 766 768 771 772 774 776 777 777 779 780 781 783 783 784 785 786 789 790 792 794 796 797 799 801 801 802 803 804 805 806 808 808 810 811 813 816 818 820 821 824 825 827 829 830 831 833 834 835 836 838 839 840 841 842 843 844 846 846 847 848 848 849 850 850 851 852
766 772 779 778 772 764 754 751 749 749 751 749 745 743 744 747 743 736 741 746 742 752 756 750 751 750 749 751 754 758 761 765 768 771 773 774 776 776 776 778 779 780 781 782 784 785 787 789 790 792 793 795 796 798 800 801 802 803 804 805 806 807 808 809 810 812 815 817 819 821 823 825 827 829 830 831 833 834 835 837 838 839 840 841 842 843 845 846 847 848 848 849 849 850 851 852 853
763 768 777 771 761 757 750 747 746 745 746 748 748 745 744 744 740 739 745 749 749 756 759 757 761 760 757 756 756 759 760 764 768 771 773 774 775 775 775 775 776 778 779 780 782 785 787 788 790 791 793 794 795 797 798 799 801 802 804 805 806 806 807 808 809 811 814 816 818 821 823 825 827 829 830 832 833 834 835 837 838 839 840 842 843 844 845 846 847 848 848 849 850 851 852 853 854
761 764 770 763 756 758 751 744 744 742 743 748 750 748 748 743 739 741 744 753 759 757 754 755 759 759 758 758 758 760 761 763 766 770 772 773 774 774 773 774 774 776 778 780 782 784 786 788 790 791 793 794 795 796 797 798 799 802 804 805 806 806 807 808 809 811 813 816 818 820 823 825 827 828 830 832 833 834 835 837 838 839 840 841 843 844 845 846 847 848 848 849 850 851 852 853 854
760 759 759 756 755 758 748 741 742 740 743 747 750 752 750 743 743 744 745 755 760 753 748 747 749 751 754 756 758 760 761 764 766 768 769 771 772 772 772 773 775 776 778 780 782 785 787 788 790 791 793 794 795 795 796 798 799 801 804 806 807 807 808 809 810 812 813 816 818 820 822 825 826 828 830 831 833 834 835 837 838 839 840 841 842 844 845 846 847 848 849 849 850 851 852 853 854
760 758 752 751 751 752 745 740 741 740 745 750 750 749 746 747 749 745 745 749 749 744 742 743 744 745 748 752 756 759 762 763 764 766 767 768 769 770 771 773 775 777 780 781 783 786 787 788 789 790 792 793 795 796 797 799 801 803 805 807 808 809 810 811 812 813 814 816 818 820 822 824 826 828 830 831 833 834 835 836 838 839 840 841 842 843 845 846 847 848 849 850 850 851 852 853 854
757 758 751 748 746 746 742 739 741 741 744 746 745 746 747 752 752 746 745 744 743 742 741 743 745 745 747 752 755 758 760 761 762 764 765 767 770 773 775 778 781 782 783 784 785 786 787 788 788 789 790 792 794 796 798 800 803 805 807 809 811 812 812 813 814 815 816 817 818 820 822 824 826 828 830 831 833 834 835 837 838 840 840 842 843 844 845 846 847 848 849 849 850 851 851 852 854
754 755 749 746 744 743 739 738 739 740 741 741 743 748 750 749 748 748 747 743 743 741 741 742 744 747 750 753 756 757 759 760 761 762 764 770 775 780 784 786 786 786 786 785 786 786 786 785 784 785 787 790 794 797 800 802 805 806 808 811 812 814 814 815 816 816 817 818 819 821 823 825 826 828 829 831 832 834 836 838 839 840 841 842 843 844 845 846 847 848 848 849 850 850 851 852 853
750 749 746 744 744 740 738 738 738 739 739 740 746 751 748 744 746 751 745 740 742 741 742 744 744 748 751 754 756 757 759 760 761 761 765 772 777 781 785 785 784 785 786 786 787 785 783 782 782 784 787 792 795 798 800 802 805 807 809 811 813 814 816 816 817 817 818 819 820 822 824 825 826 827 829 830 832 834 835 837 840 841 842 843 844 845 845 845 847 847 848 849 849 850 851 852 852
743 743 743 742 742 739 738 739 737 738 738 740 747 752 748 742 747 755 744 734 739 742 745 745 746 750 752 754 755 757 759 760 761 761 765 771 775 778 780 782 783 784 785 787 788 784 782 782 784 788 791 793 795 796 798 800 803 806 808 810 813 814 816 817 817 818 818 820 821 823 824 825 826 827 828 830 832 833 834 836 839 840 840 842 844 845 845 846 847 847 848 848 849 850 851 850 851
740 742 744 743 741 739 738 740 739 739 741 739 743 749 747 744 749 752 741 732 736 742 747 747 748 749 751 753 754 756 758 759 760 761 763 767 772 776 777 778 781 783 783 785 787 784 782 784 786 789 792 793 795 797 800 802 804 804 806 808 811 813 815 816 817 818 819 820 822 823 825 825 826 827 828 829 830 832 833 835 837 838 838 840 844 845 846 846 847 847 847 848 849 849 850 850 851
741 742 749 748 743 744 741 740 740 741 743 737 740 755 755 750 749 743 736 732 734 740 747 748 749 749 750 752 753 756 757 758 759 760 762 763 769 773 774 776 778 780 781 784 787 784 782 784 786 789 792 794 796 800 803 805 805 804 805 807 810 813 815 816 817 818 819 821 822 823 825 825 826 827 827 828 829 831 833 834 836 837 837 839 843 845 845 846 846 847 846 847 848 848 850 851 850
743 744 750 753 754 752 741 739 740 741 742 733 743 767 764 751 745 738 733 732 735 743 747 748 749 749 750 751 753 756 756 757 758 759 761 762 766 769 771 774 775 777 779 783 785 782 782 784 786 789 792 795 797 801 803 804 805 805 806 808 811 813 814 816 817 818 820 821 822 823 824 825 826 826 827 828 829 830 832 833 835 836 836 838 842 844 845 846 846 846 846 846 847 848 851 850 850
747 750 752 756 765 758 739 738 741 742 740 731 746 769 762 749 742 735 732 730 737 746 747 747 749 749 751 751 753 755 755 756 756 758 761 762 765 767 769 772 773 775 777 780 780 779 781 783 786 789 791 794 797 800 802 802 803 805 807 808 811 813 814 816 817 818 820 821 822 823 824 825 825 826 826 827 828 830 831 833 834 835 836 839 842 844 845 846 846 846 846 846 847 849 851 849 849
749 760 763 759 764 756 740 736 737 741 739 732 747 764 757 747 741 734 731 729 735 745 747 747 749 749 750 751 752 754 754 754 756 758 760 761 764 765 767 769 771 773 774 776 777 778 780 783 785 788 789 791 794 797 800 801 803 804 805 807 810 812 814 816 817 818 819 821 822 823 824 825 825 825 826 827 828 829 831 832 833 834 837 840 842 844 845 845 845 846 845 846 847 849 851 850 850
753 760 768 762 760 758 747 737 730 733 738 737 745 757 754 745 738 732 728 727 732 742 746 747 748 748 750 751 751 753 754 755 756 758 759 761 763 764 765 767 769 770 772 773 774 776 778 781 784 786 787 789 793 796 798 801 803 804 805 807 810 813 814 816 817 818 819 820 822 823 823 824 824 824 825 826 827 829 830 831 832 835 837 840 842 843 844 844 844 845 845 846 847 848 850 851 851
763 759 763 760 756 757 752 739 727 728 737 742 744 750 750 741 735 729 723 723 730 739 745 746 748 749 750 751 752 752 754 755 756 757 758 760 761 763 764 766 767 769 770 771 772 774 777 780 782 785 787 789 793 797 800 803 804 805 807 808 811 815 817 817 817 818 819 820 821 822 822 823 823 823 824 825 826 828 829 831 832 834 837 839 841 842 843 843 843 844 845 845 846 847 849 850 851
767 763 763 761 754 753 751 741 731 729 737 744 748 750 747 740 735 729 723 723 729 736 742 745 746 749 751 751 752 752 753 754 754 754 756 758 760 762 764 765 766 768 769 771 773 774 777 780 783 786 788 790 794 799 802 804 804 806 809 811 813 816 818 817 817 818 819 820 820 821 821 821 821 822 823 825 826 827 828 830 832 834 837 839 840 841 842 842 843 844 845 845 845 846 847 849 850
759 757 758 760 756 751 743 735 730 729 738 744 749 751 746 742 738 732 728 725 727 734 739 743 745 748 749 750 751 752 753 753 752 752 754 756 758 761 763 765 766 767 769 772 774 776 778 782 785 787 790 792 796 801 804 805 806 808 811 812 813 815 817 817 817 817 818 818 819 820 820 820 820 820 822 823 825 826 827 830 831 834 836 838 839 840 842 842 842 844 845 845 845 847 848 849 851
751 752 755 755 755 751 737 730 727 725 739 746 744 747 744 741 738 733 731 729 729 734 740 743 744 747 748 749 751 751 752 752 751 752 754 756 758 761 763 765 767 768 771 773 775 778 781 785 788 791 795 798 801 804 805 806 807 809 809 809 809 811 815 817 817 816 816 817 818 818 818 818 818 819 820 822 823 825 827 829 831 834 836 837 839 840 841 842 842 844 844 844 846 848 850 851 853
752 755 758 755 754 751 737 731 729 724 739 747 742 745 745 739 736 732 730 733 735 735 740 745 745 746 747 748 750 749 750 750 750 752 754 756 758 760 763 765 766 768 770 774 777 781 785 787 789 791 795 799 802 803 803 803 804 804 804 804 805 808 812 814 814 814 814 815 816 817 816 816 816 817 819 820 822 824 826 828 830 832 835 837 838 839 840 841 842 844 843 844 846 848 850 851 852
754 755 759 760 754 750 741 732 730 727 737 747 743 746 747 740 737 733 730 731 732 730 734 741 743 745 747 747 748 748 749 749 750 752 753 754 756 759 762 763 765 768 771 776 780 783 785 785 786 788 792 797 800 801 801 800 800 799 800 801 803 805 808 810 811 811 812 813 814 815 815 814 815 816 818 819 821 823 825 827 828 830 834 837 837 838 839 840 842 843 843 844 845 848 850 851 850
755 755 760 762 753 754 755 742 733 731 734 741 743 747 747 742 740 737 733 730 728 726 728 733 737 740 741 741 742 745 747 748 749 751 751 753 755 756 758 761 765 769 773 777 781 784 783 781 783 788 793 797 800 801 800 799 799 799 800 801 802 804 806 807 809 810 811 811 812 813 813 813 814 815 816 817 820 822 824 826 827 829 832 835 837 837 839 839 841 842 843 844 845 848 850 850 850
754 751 756 758 751 752 755 746 739 737 737 737 742 755 755 745 745 742 734 731 729 726 726 731 735 735 735 736 737 739 741 742 745 749 752 753 754 754 755 759 764 769 773 777 781 783 779 778 782 787 792 796 798 798 798 798 798 799 798 800 801 802 804 805 807 809 809 809 809 811 812 811 812 813 815 817 819 822 824 825 827 829 832 835 836 836 838 839 840 842 843 844 845 846 848 849 850
755 750 748 750 750 749 748 746 747 753 755 742 742 768 769 748 746 746 737 735 734 729 728 729 732 734 735 736 736 737 737 738 740 745 749 751 752 753 755 760 765 770 774 778 782 782 779 779 781 785 789 792 794 794 795 795 795 796 796 796 797 798 799 800 802 804 806 805 806 808 810 810 812 813 814 817 819 822 824 825 827 829 832 835 835 836 838 838 839 841 842 843 845 846 847 849 850
759 750 743 744 746 748 748 747 754 764 764 746 741 766 774 758 750 746 740 740 737 733 732 728 728 731 731 732 734 735 737 739 741 744 746 747 750 753 759 763 766 769 775 779 782 782 783 783 782 784 786 788 790 791 792 793 793 794 794 793 793 793 794 796 798 801 803 803 804 806 808 810 812 813 814 817 819 821 823 824 827 828 830 833 834 835 837 838 838 840 841 842 844 846 847 848 849
759 745 741 745 746 747 746 746 754 757 753 749 743 752 770 769 754 741 738 743 742 739 738 734 734 735 732 732 735 737 740 742 745 748 749 753 757 762 767 769 769 769 774 777 776 779 783 784 782 783 785 786 789 790 791 791 791 792 793 793 793 793 793 795 798 800 802 803 804 805 806 809 811 814 815 817 819 821 822 824 826 827 829 832 833 834 836 837 838 839 841 842 844 846 846 847 848
750 739 739 743 743 745 744 746 753 750 752 764 754 748 770 774 752 739 737 743 748 748 746 743 742 742 739 737 738 740 743 745 747 751 755 760 763 766 769 771 773 774 776 776 773 774 778 780 779 780 783 785 787 789 789 790 790 791 792 793 794 794 795 797 799 800 801 802 803 805 807 808 811 813 815 817 819 821 822 824 826 827 829 830 832 833 835 836 837 839 841 843 844 845 845 846 847
739 735 738 739 740 741 743 749 755 753 764 776 761 751 772 777 755 746 747 750 754 752 749 748 745 745 745 742 741 742 745 749 753 756 761 764 765 766 768 771 774 775 776 776 773 772 773 775 775 776 779 782 785 787 789 789 791 791 792 793 793 795 797 798 800 800 801 802 803 805 807 809 810 813 815 816 818 820 821 823 825 827 828 830 831 832 834 835 837 839 841 843 844 844 845 846 846
733 735 740 743 743 741 744 749 753 766 778 776 761 752 766 778 767 757 757 756 754 752 751 752 749 749 750 748 747 748 749 754 759 763 766 769 770 770 771 772 772 771 771 770 768 767 768 769 772 773 776 781 783 786 788 790 791 792 792 793 793 795 797 799 800 801 801 802 803 805 807 809 811 813 814 816 817 819 820 822 824 826 827 829 830 831 833 835 837 839 841 842 844 844 845 845 846
733 738 743 752 755 751 756 758 759 780 789 772 758 752 760 780 778 765 759 754 751 752 753 755 754 755 757 756 755 754 754 758 764 769 771 772 773 774 775 776 777 775 773 770 769 768 767 767 769 771 774 779 782 786 788 790 792 793 793 793 794 795 796 798 800 802 803 803 804 806 807 809 811 813 814 815 817 819 821 822 824 825 827 828 829 831 833 835 837 839 840 842 843 844 844 845 846
735 740 747 763 773 774 780 779 776 786 784 764 754 754 764 779 776 765 760 755 753 752 752 754 754 757 762 764 764 763 762 764 767 772 774 774 775 776 777 779 781 781 781 780 778 776 775 774 774 774 775 778 782 786 789 792 793 794 794 795 795 796 797 799 800 802 804 804 805 806 807 809 811 812 814 815 817 819 821 822 823 825 826 828 829 831 833 834 836 838 840 841 842 843 844 844 845
738 744 753 768 780 789 795 790 787 786 777 760 750 755 774 782 773 764 760 756 753 752 752 754 756 759 765 768 771 772 771 772 773 774 775 775 775 775 776 778 779 779 780 781 782 782 780 780 781 781 779 780 783 787 790 792 794 795 796 796 797 797 798 799 801 803 805 805 806 806 808 809 811 812 814 815 817 819 821 822 823 825 826 828 829 831 832 834 836 837 839 840 841 842 843 843 844
739 736 745 761 768 780 789 785 784 782 773 762 754 762 780 785 774 764 759 755 752 752 755 758 762 766 767 769 772 774 775 775 776 776 776 776 775 775 775 776 777 776 774 775 779 782 781 779 781 782 783 784 785 788 790 792 794 795 797 797 798 798 799 800 802 804 805 806 806 807 808 809 811 812 814 815 817 819 820 822 823 825 826 828 829 830 832 833 835 837 838 839 840 841 842 842 843
740 731 744 757 753 759 771 770 768 771 773 769 766 774 779 774 769 762 758 757 755 758 762 765 771 772 770 771 772 773 773 772 774 777 778 777 776 776 776 775 775 773 772 773 775 779 781 779 777 778 781 785 788 789 791 791 792 794 795 797 798 799 799 801 802 804 806 806 806 807 808 809 810 812 814 815 817 819 820 821 823 825 826 828 829 830 831 833 834 836 837 837 838 840 841 841 842
740 739 748 746 734 742 761 767 760 764 780 775 768 783 785 773 772 768 762 762 763 768 773 775 778 777 774 775 776 776 777 776 776 779 780 780 779 778 777 776 774 772 772 774 776 778 780 779 777 774 774 780 785 786 786 787 789 791 793 795 797 798 799 801 802 804 805 806 807 807 808 809 810 812 814 815 817 819 820 821 823 825 826 828 829 829 831 832 833 835 835 836 837 839 840 840 841
741 747 742 732 732 739 751 767 769 772 786 775 764 783 792 786 787 779 770 772 775 778 782 782 783 781 780 781 780 781 782 782 781 780 781 782 781 780 778 778 777 776 774 775 778 780 779 779 778 773 771 773 776 779 781 784 786 789 792 795 797 798 799 800 802 804 805 806 807 807 808 809 810 812 814 815 817 819 820 821 823 824 826 827 829 829 831 832 833 834 835 836 837 838 839 840 841
730 736 727 731 751 756 753 765 774 779 786 778 771 784 793 794 796 789 783 786 787 786 788 789 789 787 787 787 785 785 786 785 783 781 781 782 783 783 782 782 782 782 780 779 782 781 777 775 775 774 774 774 776 780 783 786 787 789 792 795 797 798 799 801 802 804 805 805 806 807 808 809 811 813 814 816 817 819 820 821 822 824 826 827 829 830 831 832 833 834 835 836 836 837 838 839 841
723 727 725 729 743 751 752 755 761 771 781 779 778 788 795 797 795 792 793 794 792 792 793 793 793 791 791 791 790 790 789 788 785 783 783 784 785 785 784 784 784 783 783 782 781 780 776 773 773 774 776 778 780 782 785 786 788 790 792 794 796 798 801 802 802 803 805 805 806 807 808 809 811 813 814 816 817 818 819 820 822 824 826 827 829 830 830 831 832 834 835 835 836 837 838 839 840
731 736 738 737 735 737 744 749 748 757 772 775 777 791 800 796 791 791 794 792 791 793 794 795 794 794 794 794 793 793 793 791 788 786 786 787 787 787 785 784 783 782 782 780 779 779 777 775 774 775 777 779 781 783 784 785 787 788 790 791 793 797 801 802 802 803 805 805 806 807 808 809 811 813 814 816 817 818 819 820 822 824 826 827 829 829 830 831 832 833 834 835 836 836 837 838 840
730 736 737 739 740 741 753 762 751 747 760 768 774 793 801 794 790 791 792 792 792 791 794 797 797 796 796 795 794 794 793 793 790 788 789 790 789 789 787 785 783 782 780 781 783 783 781 779 777 777 777 779 781 782 784 785 785 787 788 788 791 795 799 801 801 803 804 805 806 806 807 809 810 812 813 815 816 817 819 821 823 825 826 828 829 830 830 831 832 833 834 835 836 836 837 838 839